Погода в Филипповском

Россия / Владимирская область     56°05′51″N   38°36′36″E
темп.,
°C
ветер,
м/с
пор.,
м/с
влажн.,
%
обл.,
%
осадки,
мм/ч
давл.,
гПа
погр.,
м
5 марта, пт
пт500:00−8сз229176 0.0 100228
03:00−9зсз239566 0.0 100478
06:00−10зсз239674 0.0 100567
09:00−7зсз379168 0.1 1006358
12:00−3зсз577492 0.0 10071212
15:00−3зсз586696 0.3 10091526
18:00−7зсз238397 0.2 101167
21:00−10зсз238870 0.2 101421
6 марта, сб
сб600:00−11сз11900 0.0 101521
03:00−12зсз12910 0.0 101621
06:00−12зсз229211 0.0 101521
09:00−10зсз24905 0.0 1016224
12:00−6сз357761 0.0 1016863
15:00−6сз357180 0.1 10161138
18:00−10сз128562 0.0 101521
21:00−11юз228831 0.0 101521
7 марта, вс
вс700:00−12ююз379324 0.0 1012139
03:00−10ююз4128928 0.0 1008399
06:00−7юз61387100 0.2 1004766
09:00−6юз71487100 0.3 9991068
12:00−4юз71491100 1.3 9941134
15:00−4сз81380100 3.1 993794
18:00−6з5109266 0.4 995487
21:00−9зюз4118382 0.8 997282
8 марта, пн
пн800:00−7юз5129484 0.3 995815
03:00−6з499492 1.1 993606
06:00−9зюз3992100 0.1 993309
09:00−9ссз61180100 1.2 996800
12:00−9сз6108385 0.1 999983
15:00−7сз6107992 0.2 10021140
18:00−9сз41089100 0.1 1004775
21:00−12сз3109073 0.1 1008395
9 марта, вт
вт900:00−14сз389540 0.0 1010229
03:00−16сз389542 0.0 1012226
06:00−18ссз399597 0.0 1014270
09:00−17ссз379186 0.0 1016349
12:00−14ссз468284 0.0 1017547
15:00−13ссз477873 0.0 1018722
18:00−16ссз388739 0.0 1019255
21:00−20ссз249419 0.0 102191